Portada
METAR-TAF:

METAR-TAF

Aeropuertos :

Birjand, Irán

latitud: 32-52N, longitud: 059-12E, altitud: 1491 m

Observación

El informe se hizo hace 50 minutos, a las 10:00 UTC
Viento 14 kt del oeste-noroeste
Temperatura 20°C
Humedad 23%
Presión 1020 hPa
Visibilidad 10 km o más
Escasas nubes a una altura de 4000 ft

METAR: OIMB 031000Z 30014KT 9999 FEW040 20/M02 Q1020

Hora: 14:20 (10:50 UTC)


TAF: falta

Observaciones y pronósticos meteorológicos de más de 4000 aeropuertos (mensajes METAR y TAF).

Los puntos amarillos y rojos representan las estaciones disponibles.

Ponga el ratón en el punto deseado para ver el nombre de la estación.

Haga clic para ver las observaciones y los pronósticos meteorológicos.

Para cambiar el mapa : haga clic en los botones verdes con una cruz de color negro para hacer un zoom, en el botón verde con un guión para alejar o en las flechas verdes para mapas adyacentes.


METAR-TAF: